www.pogodaiklimat.ru

Погода и климат >> Архив погоды >> Турция >> Измир аэропорт


ПОГОДА в Измир аэропорту

  • Прогноз погоды в Измир аэропорту
  • Монитор погоды в Измир аэропорту

АРХИВ ПОГОДЫ в Измир аэропорту

Время (UTC), дата Ветер
(напр.,м/с)
 
Видим.   Явления Облачность Т
(С)
Тd
(С)
f
(%)
Тe
(С)
Тes
(С)
Комфортность P
(гПа)
Po
(гПа)
Тmin
(С)
Tmax
(С)
R
(мм)
R24
(мм)
S
(см)
03 17.03 ЮВ 2
{3}
15 км ясно +3.3 +2.2 92 +1 +1 1019.1 1004.5
06 17.03 Ю 2
{3}
15 км 3/0
[Ci fib]
+8.0 +4.5 79 +7 +9 1020.4 1005.8 +2.9
09 17.03 нст 2
{5}
15 км ясно +14.7 +6.1 56 +14 +27 опасность
простуды
1020.8 1006.2
12 17.03 Ю 3
{8}
15 км ясно +19.7 +8.3 48 +21 +30 комфорт 1019.4 1004.9
15 17.03 Ю 4
{8}
15 км ясно +20.0 +7.6 45 +21 +22 комфорт 1018.5 1004.0
18 17.03 ЮЗ 2
{8}
15 км ясно +12.4 +7.3 71 +12 +12 1018.9 1004.3 +20.9
21 17.03 ЮВ 2
{3}
15 км ясно +8.3 +6.5 88 +7 +7 1019.0 1004.5
00 18.03 Ю 2
{3}
15 км ясно +6.2 +5.0 92 +4 +4 1018.6 1004.2
03 18.03 Ю 1
{3}
15 км ясно +5.6 +4.5 93 +4 +4 1017.8 1003.4
06 18.03 Ю 2
{3}
15 км ясно +8.8 +6.8 87 +7 +10 1019.0 1004.5 +4.7
09 18.03 Ю 3
{5}
15 км ясно +17.7 +9.0 57 +18 +28 1019.2 1004.8
12 18.03 Ю 5
{8}
15 км ясно +20.1 +11.2 57 +22 +27 комфорт 1018.4 1004.0
15 18.03 Ю 4
{8}
15 км ясно +19.0 +11.0 60 +20 +21 1017.5 1003.1
18 18.03 Ю 3
{8}
15 км ясно +13.2 +10.4 83 +12 +12 1018.4 1003.9 +20.3
21 18.03 Ю 2
{5}
15 км ясно +9.3 +7.8 90 +8 +8 1018.9 1004.5
00 19.03 штиль 0
{5}
15 км ясно +8.5 +7.3 92 +8 +8 1018.3 1004.0
03 19.03 штиль 0
{2}
10 км 4/4 240 м
[Frnb]
+7.3 +6.3 93 +6 +6 1017.7 1003.3
06 19.03 Ю 2
{2}
6000 м дымка 8/4 750 м
[Cu hum Ci fib]
+10.6 +9.7 94 +9 +11 1018.5 1004.0 +6.6
09 19.03 Ю 3
{7}
15 км 6/3 900 м
[Cu med, cong Ci fib]
+17.2 +11.8 71 +17 +25 1018.5 1004.1
12 19.03 Ю 3
{7}
15 км 8/5 900 м
[Cu med, cong Ci fib]
+19.2 +9.4 53 +20 +24 1017.4 1003.1
15 19.03 З 4
{6}
15 км 4/4 1200 м
[Cu med, cong]
+19.1 +9.5 54 +20 +21 1017.0 1002.6
18 19.03 В 2
{6}
15 км ясно +14.6 +10.0 74 +15 +15 1018.4 1004.0 +20.4
21 19.03 ЮЗ 1
{4}
15 км ясно +10.7 +8.8 88 +10 +10 1019.7 1005.3
00 20.03 штиль 0
{4}
15 км 4/4 1050 м
[Cu med, cong]
+9.8 +7.7 87 +9 +9 1019.0 1004.7
03 20.03 С 2
{2}
15 км 4/1 1050 м
[Cu hum Ci fib]
+7.5 +6.1 91 +6 +6 1018.9 1004.5
06 20.03 СЗ 2
{4}
6000 м дымка 6/1 1050 м
[Cu hum Ac trans Ci fib]
+10.2 +8.3 88 +9 +11 1019.3 1004.8 +6.9
09 20.03 С 4
{8}
15 км 6/4 1050 м
[Cu hum Ac trans]
+16.1 +10.3 68 +15 +19 1019.4 1005.0
12 20.03 С 5
{9}
15 км 6/4 900 м
[Cu hum Ci fib]
+18.7 +10.2 58 +19 +22 1018.1 1003.8
15 20.03 С 6
{9}
15 км 6/4 1050 м
[Cu hum Ci fib]
+19.2 +10.9 59 +20 +20 1017.7 1003.3
18 20.03 В 2
{9}
15 км 6/3 1200 м
[Cu hum Ci fib]
+15.0 +10.8 76 +15 +15 1019.1 1004.7 +20.0
21 20.03 СВ 4
{8}
15 км 5/0
[Ci fib]
+13.3 +7.1 66 +12 +12 1019.8 1005.5
00 21.03 С 7
{8}
15 км 5/0
[Ci fib]
+12.3 +6.1 66 +10 +10 1020.2 1005.9
03 21.03 С 8
{13}
15 км 5/0
[Ci fib]
+11.6 +5.5 66 +8 +8 1019.8 1005.5
06 21.03 С 11
{13}
15 км 6/0
[Ci fib]
+12.5 +3.2 53 +9 +9 1021.3 1006.9 +11.1
09 21.03 С 11
{14}
15 км 6/0
[Ci fib]
+16.7 +5.2 47 +15 +15 1021.6 1007.3
12 21.03 С 11
{15}
15 км 6/0
[Ci fib]
+18.6 +4.6 40 +18 +18 1020.4 1006.1
15 21.03 С 11
{15}
15 км 6/0
[Ci fib]
+17.4 +4.1 41 +16 +16 1019.8 1005.5
18 21.03 С 9
{15}
15 км ясно +14.3 +3.9 50 +12 +12 1021.0 1006.6 +19.0
21 21.03 С 9
{13}
15 км ясно +12.1 +4.0 58 +9 +9 1022.1 1007.7
00 22.03 С 10
{13}
15 км ясно +11.0 +3.3 59 +7 +7 1022.6 1008.2
03 22.03 С 10
{13}
15 км ясно +10.4 +2.5 58 +6 +6 1022.1 1007.7
06 22.03 С 10
{14}
15 км ясно +11.2 +1.2 50 +8 +8 1023.2 1008.7 +9.9
09 22.03 С 11
{14}
15 км ясно +15.0 +3.0 44 +13 +13 1022.6 1008.2
12 22.03 С 10
{14}
15 км ясно +18.4 +2.9 36 +17 +18 1020.4 1006.1
15 22.03 С 10
{14}
15 км ясно +18.5 +3.7 37 +18 +18 1018.8 1004.5
18 22.03 С 7
{14}
15 км ясно +14.2 +2.2 44 +12 +12 1019.4 1005.0 +19.3
21 22.03 С 8
{11}
15 км ясно +12.7 +0.5 43 +10 +10 1019.4 1005.0
00 23.03 С 6
{11}
15 км ясно +9.5 +0.3 53 +6 +6 1019.4 1005.0
03 23.03 С 7
{10}
15 км ясно +9.5 -1.5 46 +6 +6 1018.2 1003.8
06 23.03 С 8
{10}
15 км ясно +11.3 -1.0 42 +8 +9 1018.4 1004.0 +8.4
09 23.03 С 9
{12}
15 км ясно +15.8 +1.2 37 +14 +16 1017.4 1003.1
12 23.03 С 10
{14}
15 км ясно +19.2 +0.4 28 +18 +19 1015.4 1001.1
15 23.03 С 8
{13}
15 км ясно +19.8 -0.2 26 +19 +20 1014.4 1000.1
18 23.03 С 11
{14}
15 км ясно +15.0 +0.8 38 +13 +13 1015.5 1001.1 +20.5
21 23.03 СВ 16-22
{23}
15 км ясно +15.0 -2.8 29 +12 +12 1015.8 1001.6
00 24.03 С 10
{23}
15 км ясно +10.8 -9.4 23 +7 +7 1016.0 1001.7

 

Местоположение метеостанции Измир аэропорт (Турция): широта 38.27 долгота 27.15 высота над уровнем моря 120 м.

В архиве по умолчанию представлена погода в Измир аэропорту за последнюю неделю. Архивные данные за месяц целиком и за предыдущие месяцы, начиная с января 2011 года, Вы можете получить, выбрав интересующий диапазон дат из раскрывающегося списка и нажав кнопку "Ввод!".


*Определитесь, кто Вы:
робот инопланетянин человек

Внимание! Время в таблицах - всемирное. Для получения местного времени необходимо прибавить поправку, которая равна 2 ч.

Смотрите также архив погоды в соседних городах и на ближайших метеорологических станциях:

Погода в Измире (Турция) (18 км)
Погода в Измир / Сигли (Турция) (28 км)
Погода в Кушадасы (Турция) (45 км)
Погода в Манисе (Турция) (46 км)
Погода на Самосе (Греция) (67 км)
Погода в Чешме (Турция) (74 км)
Погода в Айдыне (Турция) (77 км)
Погода на Хиосе (Греция) (89 км)
Погода в Дикили (Турция) (90 км)
Погода в Акхисаре (Турция) (94 км)

Пояснения к столбцам:

Ветер - указаны скорость ветра в м/с - средняя за 10 мин, порывы в срок и между сроками (в фигурных скобках) и направление, откуда дует ветер: С - северный, СВ - северо-восточный, В - восточный, ЮВ - юго-восточный, Ю - южный, ЮЗ - юго-западный, З - западный, СЗ - северо-западный.
Видимость - горизонтальная дальность видимости в метрах или километрах. При видимости от 1 до 10 км при отсутствии осадков обычно наблюдается дымка, при ухудшении видимости до 1 км и менее - туман. В сухую погоду видимость может ухудшаться дымом, пылью или мглою.
Явления - указаны атмосферные явления, наблюдавшиеся в срок или в последний час перед сроком; фигурными скобками обозначены явления, наблюдавшиеся между сроками (за 1-3 часа до срока); квадратными скобками обозначены град или гололедные отложения с указанием их диаметра в мм.
Облачность - указаны через наклонную черту общая и нижняя облачность в баллах и высота нижней границы облаков в метрах; квадратными скобками обозначены формы облаков: Ci - перистые, Cs - перисто-слоистые, Cc - перисто-кучевые, Ac - высококучевые, As - высокослоистые, Sc - слоисто-кучевые, Ns - слоисто-дождевые, Cu - кучевые, Cb - кучево-дождевые. Подробнее классификацию облаков см. в Атласе облаков (PDF).
T - Температура воздуха - температура, измеренная на высоте 2 м над землей.
Td - Температура точки росы - температура, при понижении до которой содержащийся в воздухе водяной пар достигнет насыщения.
f - Относительная влажность воздуха - влажноcть воздуха, измеренная на высоте 2 м над землей.
Te - Эффективная температура - температура, которую ощущает одетый по сезону человек в тени. Характеристика душности погоды. При расчете учитывается влияние влажности воздуха и скорости ветра на теплоощущения человека.
Tes - Эффективная температура на солнце - температура, которую ощущает человек, с поправкой на солнечный нагрев. Характеристика знойности погоды. Зависит от высоты солнца над горизонтом, облачности и скорости ветра. Ночью, в пасмурную погоду, а также при ветре 12 м/с и более поправка равна нулю.
P - Атмосферное давление - приведенное к уровню моря атмосферное давление.
Po - Атмосферное давление - измеренное на уровне метеостанции атмосферное давление.
Tmin - Минимальная температура - минимум температуры воздуха на высоте 2 м над землей.
Tmax - Максимальная температура - максимум температуры воздуха на высоте 2 м над землей.
R - Количество осадков - Количество выпавших осадков за период времени, мм. При наведении курсора мыши на число - период времени, за который выпало указанное количество осадков.
R24 - Количество осадков - Количество выпавших осадков за 24 часа, мм.
S - Снежный покров - Высота снежного покрова, см. При наведении курсора мыши на число - состояние снежного покрова и степень покрытия местности в баллах.